Location: Ore Lake
(42.4733°N, 83.8017°W)
Time: 19:10:39
(UTC-05:00)

Daily predictions for brighter satellites

Satellite Brightness Start Highest point End
(mag) Time Altitude Azimuth Time Altitude Azimuth Time Altitude Azimuth
Cosmos 1300 Rocket 3.6 17:25:20 10° N 17:29:45 84° E 17:34:10 10° S
ATLAS 3B R/B 3.8 17:25:52 10° NNW 17:30:59 22° NNE 17:35:58 10° E
Cosmos 1818 4.0 17:26:50 10° S 17:31:58 46° ESE 17:37:10 10° NE
IRAS Rocket 4.3 17:26:54 10° SSE 17:32:16 58° ENE 17:37:39 10° N
NOSS 3-1 (A) 3.7 17:26:52 10° SW 17:32:35 69° NW 17:39:05 10° NNE
Cosmos 1812 2.7 17:32:09 10° S 17:35:59 64° E 17:39:50 10° NNE
COSMO-SKYMED 1 4.3 17:34:08 10° NE 17:36:41 15° E 17:39:13 10° SE
Cosmos 1833 4.3 17:31:05 10° NNW 17:36:48 89° WSW 17:42:32 10° SSE
SMAP 3.3 17:34:36 10° SE 17:39:03 48° ENE 17:43:32 10° N
USA 215 3.9 17:32:37 10° SE 17:39:04 63° SW 17:45:34 10° NW
Cosmos 389 Rocket 4.0 17:38:57 10° NNE 17:41:14 16° ENE 17:43:29 10° ESE
ISS -1.9 17:39:00 10° NW 17:41:19 17° N 17:43:38 10° NE
BREEZE-M DEB (TANK) 4.2 17:39:32 10° NW 17:41:37 23° NNE 17:44:56 10° ENE
Aureole 1 Rocket 4.4 17:36:48 10° N 17:41:54 37° ENE 17:48:19 10° SE
ERS-2 3.7 17:42:05 10° E 17:44:16 15° ENE 17:46:26 10° NNE
Cosmos 1943 Rocket 2.9 17:38:49 10° SW 17:44:17 54° WNW 17:49:51 10° NNE
Cosmos 1655 Rocket 4.5 17:39:22 10° N 17:45:18 39° ENE 17:51:12 10° SE
Cosmos 1634 Rocket 4.0 17:39:37 10° S 17:45:43 65° E 17:51:55 10° NNE
Cosmos 1898 Rocket 3.8 17:41:02 10° S 17:46:00 49° ESE 17:51:03 10° NNE
ALOS 3.6 17:44:43 10° ESE 17:47:51 18° ENE 17:51:01 10° NNE
USA 116 4.3 17:46:47 10° NE 17:49:40 26° E 17:52:21 10° SSE
Cosmos 1975 Rocket 3.6 17:45:42 10° SSE 17:49:51 39° E 17:54:02 10° NNE
Cosmos 1666 4.1 17:47:29 10° NNE 17:50:04 18° ENE 17:52:39 10° ESE
Ariane Rocket 2.9 17:46:30 10° SSE 17:51:32 69° ENE 17:56:34 10° N
Abrixas rocket 3.7 17:50:11 10° SSW 17:52:51 23° SE 17:55:07 12° E
Cosmos 1092 Rocket 4.1 17:47:20 10° N 17:53:34 83° W 17:59:51 10° S
Okean 1 Rocket 3.2 17:50:08 10° N 17:54:39 84° W 17:59:07 10° S
NOSS 2-3 (C) 4.0 17:51:54 10° SSW 17:56:23 56° ESE 18:01:27 11° NE
Meteor 1-4 Rocket 2.9 17:56:05 10° NNW 17:59:48 72° W 18:03:24 10° S
CSL-04 Debris 4.2 17:55:59 10° SSE 18:01:23 87° ENE 18:06:48 10° NNW
Atlas Centaur 2 3.8 18:01:21 10° SSW 18:03:55 14° S 18:06:16 10° SE
ATLAS CENTAUR R/B 2.6 18:00:15 10° NW 18:04:04 45° WSW 18:08:06 10° SSE
Cosmos 1937 Rocket 3.6 18:00:27 10° S 18:05:29 52° ESE 18:10:30 10° NNE
AQUARIUS 4.2 18:04:17 10° SSE 18:08:47 87° WSW 18:13:18 10° NNW
EO 1 Del DPAF 4.4 18:06:52 16° NE 18:08:52 24° E 18:12:00 10° SSE
Okean 1 3.2 18:08:14 10° S 18:12:11 76° E 18:16:10 10° NNE
Cosmos 1378 Rocket 4.3 18:09:26 10° SSW 18:13:46 57° W 18:18:10 10° N
Cosmos 2026 Rocket 4.0 18:07:57 10° N 18:14:23 88° ENE 18:20:44 10° S
CENTAUR R/B 4.5 18:11:21 10° NNW 18:15:59 17° NNE 18:19:14 14° NE
Cosmos 1743 2.9 18:16:22 10° N 18:20:06 45° E 18:23:50 10° SSE
Meteor 1-28 Rocket 3.3 18:17:06 10° N 18:20:50 79° WNW 18:24:35 10° SSW
Cosmos 1975 2.7 18:17:38 10° N 18:21:41 80° E 18:25:43 10° S
CZ-4 R/B 1.3 18:17:54 10° S 18:21:43 81° WSW 18:25:39 10° NNW
Cosmos 2369 Rocket 4.4 18:18:16 10° W 18:22:17 20° NW 18:26:19 10° N
USA 238 DEB 4.2 18:17:14 10° NNW 18:23:53 41° NE 18:29:39 14° ESE
USA 238 4.2 18:17:20 10° NNW 18:23:58 40° NE 18:29:39 14° ESE
SKYMED 2 3.8 18:21:08 12° NNE 18:25:04 48° E 18:29:16 10° S
Lacrosse 5 4.1 18:25:24 10° WNW 18:29:35 27° WSW 18:33:46 10° S
CZ-4 R/B 4.3 18:28:03 10° SSE 18:32:11 84° E 18:36:22 10° NNW
FENGYUN 3A 3.7 18:31:29 10° SSE 18:36:43 53° ENE 18:41:56 10° N
Cosmos 2150 Rocket 4.0 18:33:21 10° SSW 18:38:49 87° ESE 18:43:43 13° NNE
MONITOR-E 4.0 18:36:27 10° SSE 18:39:27 65° ENE 18:42:29 10° N
BREEZE-M DEB (TANK) 3.7 18:37:59 10° WNW 18:40:17 30° N 18:41:06 27° NNE
Cosmos 990 Rocket 4.0 18:35:39 10° SSW 18:40:47 81° WNW 18:45:27 13° NNE
NOSS 2-3 (D) 4.1 18:36:20 10° SW 18:40:57 67° NW 18:44:39 20° NNE
Cosmos 1932 4.4 18:34:39 10° NNW 18:41:06 89° ENE 18:47:20 10° SSE
Cosmos 489 Rocket 4.4 18:35:00 10° S 18:41:18 74° ESE 18:47:02 13° NNE
SPOT 3 Rocket 3.5 18:38:33 10° SSE 18:43:40 64° ENE 18:48:48 10° N
Cosmos 2219 3.3 18:38:44 10° NNW 18:44:21 79° WSW 18:49:58 10° SSE
Landsat 4 3.8 18:41:33 14° N 18:44:47 76° WNW 18:48:35 10° SSW
Cosmos 1271 Rocket 2.5 18:41:17 10° N 18:45:04 81° E 18:48:53 10° SSE
Cosmos 2227 Rocket 2.5 18:40:37 10° NNW 18:46:01 43° ENE 18:48:56 24° ESE
Meteor 1-13 Rocket 4.1 18:46:53 10° S 18:52:25 76° E 18:58:04 10° NNE
METEOR-M 4.4 18:47:19 10° S 18:52:38 70° WSW 18:57:59 10° NNW
Meteor 2-9 Rocket 4.1 18:49:23 10° N 18:54:58 65° ENE 19:00:21 10° SSE
NOSS 3-2 (A) 4.4 18:49:48 10° NNW 18:56:44 41° NE 18:59:15 33° E
Cosmos 1455 Rocket 3.1 18:52:20 10° N 18:56:48 80° W 19:01:11 10° S
Cosmos 1544 Rocket 3.8 18:55:51 10° NNW 19:00:12 68° W 19:04:31 10° S
YAOGAN 1 3.8 18:57:36 10° S 19:01:42 42° W 19:05:50 10° NNW
NOAA 12 4.0 18:59:04 10° SSE 19:04:21 89° WSW 19:09:39 10° NNW
Meteor 1-15 Rocket 4.5 18:59:05 10° N 19:04:48 47° ENE 19:10:28 10° SSE
ATLAS 2AS CENTAUR R/B 3.0 19:00:00 10° SW 19:07:46 89° NW 19:12:50 26° NE
COSMO-SKYMED 1 3.4 19:09:44 15° N 19:13:07 49° WNW 19:17:17 10° SSW
Cosmos 2297 Rocket 2.1 19:08:16 10° NNW 19:13:53 60° ENE 19:14:38 55° E
Meteor 2-4 Rocket 3.5 19:08:26 10° S 19:13:58 89° E 19:17:11 26° N
ERS-2 3.6 19:14:12 10° S 19:17:37 37° W 19:21:04 10° NNW
ISS -1.5 19:15:16 10° NW 19:16:23 19° NW 19:16:23 19° NW
ATLAS 3B R/B 2.4 19:16:03 10° NNW 19:22:46 80° NE 19:25:15 41° SE
ALOS 3.1 19:20:22 10° S 19:24:54 50° W 19:29:27 10° NNW
Cosmos 158 Rocket 3.8 19:19:55 10° NNW 19:25:05 90° NW 19:25:59 61° SSE
Nadezhda 2 Rocket 4.4 19:20:12 10° N 19:26:27 65° E 19:32:44 10° SSE
Hubble Space Telescope 3.4 19:26:49 10° SSW 19:27:52 11° S 19:27:52 11° S
Abrixas rocket 4.4 19:26:00 10° WSW 19:27:36 26° W 19:27:36 26° W
DELTA 2 R/B (1) 3.7 19:28:38 10° WSW 19:34:06 60° S 19:34:06 60° S
Cosmos 724 4.4 19:30:44 10° NNW 19:35:32 57° N 19:35:32 57° N
Cosmos 2369 3.6 19:32:24 10° SSW 19:37:46 79° SSE 19:37:46 79° SSE
SJ 16-02 2.7 19:35:02 10° SSW 19:37:20 31° SSW 19:37:20 31° SSW
Cosmos 1125 Rocket 3.5 19:34:09 10° SSW 19:39:02 76° SW 19:39:02 76° SW
Cosmos 2278 3.7 19:35:25 10° SSW 19:40:31 72° S 19:40:31 72° S
Cosmos 1048 Rocket 4.5 19:44:16 10° NNW 19:48:37 57° NW 19:48:37 57° NW
FengYun 1-2 T 4.5 19:44:52 10° S 19:50:25 68° WSW 19:56:04 10° NNW
Meteor 2-11 Rocket 4.5 19:44:22 10° S 19:49:41 68° S 19:49:41 68° S
Atlas Centaur 2 4.0 19:49:44 10° SW 19:50:40 12° SSW 19:50:40 12° SSW
Cosmos 1656 4.1 19:46:25 10° SSW 19:50:41 54° SSW 19:50:41 54° SSW
CENTAUR R/B 4.0 20:01:44 10° NNW 20:06:26 33° N 20:06:26 33° N
Cosmos 1697 Rocket 4.4 20:08:27 10° SSW 20:10:38 24° SSW 20:10:38 24° SSW
USA 238 DEB 4.4 20:08:11 10° NW 20:15:01 51° WSW 20:17:13 39° SSW
USA 238 4.4 20:08:17 10° NW 20:15:07 51° WSW 20:17:13 40° SSW
Cosmos 2227 Rocket 3.9 20:25:05 10° NW 20:29:50 28° WSW 20:30:56 26° WSW
ATLAS 2AS CENTAUR R/B 4.4 20:53:08 10° W 20:59:54 29° NNW 21:00:18 29° NNW
